Volver al catálogo

STARLINK-5394

ActivoComunicacionesVLEO
NORAD 54830·PAYLOAD·🇺🇸 United States

Lanzado Dec 28, 2022 desde Cape Canaveral Space Force Station

Loading…

Próximos Pases (próximas 24 horas)

TLE

ActualizadoSource: CelesTrak SupGP

Época: Sep 15, 2026, 01:41 UTC

1 54830C 22177L   26258.07062500 -.00038177  00000+0 -13838-2 0  2582
2 54830  43.0025 146.8904 0001210 281.6784  40.9925 15.27573068    12

Sigue STARLINK-5394 en tiempo real con AllMySat

Download on the App Store